Location: Hylvaty SDH
(49.9612°N, 16.4057°E)
Time: 12:46:20
(UTC+01:00)

Tiros 1 - Pass Details

Date: 09 October 2020
Orbit: 630 x 663 km, 48.4° (Epoch: 28 October)

Event Time Altitude Azimuth Distance (km) Brightness Sun altitude
Rises 16:37:17 0° 281° (WNW) 2,956 11.4 14.0°
Reaches altitude 10° 16:39:45 10° 273° (W) 2,050 10.9 13.6°
Maximum altitude 16:44:04 36° 208° (SSW) 1,028 9.2 13.0°
Drops below altitude 10° 16:48:25 10° 142° (SE) 2,061 9.7 12.4°
Sets 16:50:53 0° 133° (SE) 2,975 10.3 12.0°
